Regional Weather Roundup
Issued by NWS

Home | Current Version | Previous Version | Graphics & Text | Print | Product List | Glossary On
Versions: 1 2 3 4 5 6 7 8 9 10 11 12 13 14 15 16 17 18 19 20 21 22 23 24 25 26 27 28 29 30 31 32 33 34 35 36 37 38 39 40 41 42 43 44 45 46 47 48 49 50
000
ASUS43 KDTX 042201
RWRMI
MICHIGAN HOURLY REGIONAL WEATHER ROUNDUP
NATIONAL WEATHER SERVICE DETROIT/PONTIAC MI
600 PM EDT TUE AUG 04 2015

NOTE: "FAIR" INDICATES FEW OR NO CLOUDS BELOW 12,000 FEET WITH NO
SIGNIFICANT WEATHER AND/OR OBSTRUCTION TO VISIBILITY.

MIZ047>049-052>055-059>063-066>070-074>076-081>083-042300-
SOUTHEAST LOWER MICHIGAN

CITY           SKY/WX    TMP DP  RH WIND       PRES   REMARKS
ADRIAN         MOSUNNY   77  57  50 NW7       29.95S
ALMA           PTSUNNY   75  55  50 W15G22    29.93R
BAD AXE        CLOUDY    68  60  74 N7        29.92S
CARO           MOSUNNY   71  63  74 N7        29.91S
DETROIT CITY   SUNNY     79  54  41 W10       29.92R
DETROIT        PTSUNNY   81  54  39 SW12      29.92S
FLINT          MOSUNNY   78  52  40 W18G26    29.92R
GROSSE ILE     MOSUNNY   81  54  39 W8        29.91S
HILLSDALE      MOSUNNY   77  55  46 NW9       29.98R
HOWELL         PTSUNNY   77  51  40 W10G16    29.94R

CITY           SKY/WX    TMP DP  RH WIND       PRES   REMARKS
JACKSON        MOSUNNY   76  55  48 W12       29.95S
LAMBERTVILLE   PTSUNNY   80  55  41 W12       29.94S
LANSING        MOSUNNY   78  53  41 W17       29.95R
LAPEER         PTSUNNY   75  56  50 W9G17     29.91S
MASON          PTSUNNY   75  52  44 W13G22    29.94S
MONROE         PTSUNNY   79  57  46 W12       29.92S
MT. CLEMENS    PTSUNNY   77  57  50 W9        29.90R
PONTIAC        MOSUNNY   77  56  48 W12       29.92S
PORT HURON     MOSUNNY   72  63  73 CALM      29.91S
TRI CITIES     CLOUDY    77  58  51 W10       29.92R
MIDLAND        PTSUNNY   75  55  48 W8        29.90R
TROY           CLOUDY    79  54  41 W7G18     29.94R
SAGINAW HB     PTSUNNY   77  59  53 W9        29.90R
$$
MIZ043>046-050>051-056>058-064>065-071>073-077>080-042300-
SOUTHWEST LOWER MICHIGAN

CITY           SKY/WX    TMP DP  RH WIND       PRES   REMARKS
BATTLE CREEK   MOSUNNY   79  57  46 W12       29.97S
BENTON HARBOR  MOSUNNY   76  55  48 W9        29.97S
BIG RAPIDS     SUNNY     73  46  38 NW12G21   29.94S
COLDWATER      MOSUNNY   76  51  40 W12       29.97R
FREMONT        FAIR      75  48  38 NW13      29.95S
HOLLAND        SUNNY     75  56  51 NW8       29.98R
GRAND RAPIDS   PTSUNNY   76  51  41 W17       29.96R
IONIA          FAIR      77  53  42 W16G24    29.94R
KALAMAZOO      PTSUNNY   78  53  41 NW10      29.97R
LUDINGTON      SUNNY     74  57  53 W7        29.96S
MARSHALL       PTSUNNY   76  52  43 W9G22     29.96R
MOUNT PLEASANT SUNNY     78  52  40 W12G21    29.92R
MUSKEGON       MOSUNNY   76  54  46 NW9       29.96S
SOUTH HAVEN    MOSUNNY   74  61  63 NW9       29.98R
$$
MIZ016>042-042300-
NORTHERN LOWER MICHIGAN

CITY           SKY/WX    TMP DP  RH WIND       PRES   REMARKS
ALPENA         MOSUNNY   73  52  47 NW10G18   29.90S
BEAVER ISLAND  MOSUNNY   66  56  69 W10       29.95R
BELLAIRE       CLOUDY    68  52  57 NW8       29.95R
CADILLAC       CLOUDY    68  56  65 NW8       29.95R
CHARLEVOIX     CLOUDY    67  55  65 W10       29.98R
FRANKFORT      MOSUNNY   71  59  66 W6        29.95R
GAYLORD        PTSUNNY   66  52  60 NW9       29.95R
GRAYLING       PTSUNNY   71  51  48 NW9G18    29.95R
HARBOR SPRINGS CLOUDY    67  54  61 W7        29.94R
HOUGHTON LAKE  CLOUDY    70  53  54 NW10      29.94R
MANISTEE       SUNNY     72  54  53 W9        29.96S
OSCODA         PTSUNNY   68  60  75 NE9       29.90R
PELLSTON       PTSUNNY   69  51  52 NW13      29.94R
ROGERS CITY    PTSUNNY   68  55  62 NW14G21   29.92S
TRAVERSE CITY  PTSUNNY   70  54  56 N9        29.93R
$$
MIZ007>008-015-042300-
EASTERN UPPER MICHIGAN

CITY           SKY/WX    TMP DP  RH WIND       PRES   REMARKS
KINROSS        PTSUNNY   64  48  55 NW18G25   29.92R
MACKINAC ISLAN MOSUNNY   67  47  47 NW8       29.91S
NEWBERRY       PTSUNNY   65  49  54 NW12      29.94S
S. S. MARIE    MOSUNNY   63  49  60 NW14G23   29.92R
MUNISING         N/A     66  53  63 N9        29.97R
$$
MIZ004>006-011>014-085-042300-
CENTRAL UPPER MICHIGAN

CITY           SKY/WX    TMP DP  RH WIND       PRES   REMARKS
MANISTIQUE     CLOUDY    67  50  53 NW13      29.94R
ESCANABA       PTSUNNY   66  57  72 W5        29.95R
MENOMINEE      PTSUNNY   68  57  68 NE13      29.94R
$$
MIZ001>003-009>011-084-042300-
WESTERN UPPER MICHIGAN

CITY           SKY/WX    TMP DP  RH WIND       PRES   REMARKS
IRON MOUNTAIN  MOSUNNY   71  48  43 N12G20    29.94S
HOUGHTON       SUNNY     63  48  58 NW13      29.98F
COPPER HARBOR    N/A     64  53  67 N17       29.97S
IRONWOOD       MOSUNNY   66  52  59 N9        29.97S
$$

ABBREVIATIONS USED IN REMARKS
   TC - TEMPERATURE IN CELSIUS
  WCI - WIND CHILL INDEX
   HX - HEAT INDEX
  VSB - VISIBILITY



USA.gov is the U.S. government's official web portal to all federal, state and local government web resources and services.